Palma De Mallorca, Spain

5:04 AM CEST on September 28, 2016 (GMT +0200)
Palma De Mallorca

Weather History for LEPA - January, 2014

Change the Weather History Date:

Thursday, January 2, 2014

  Actual Average Record
Temperature  
Mean Temperature 58 °F -  
Max Temperature 64 °F 58 °F 69 °F (2016)
Min Temperature 53 °F 40 °F 30 °F (2015)
Degree Days  
Heating Degree Days 6    
Growing Degree Days 8 (Base 50)    
Moisture  
Dew Point 53 °F    
Average Humidity 83    
Maximum Humidity 100    
Minimum Humidity 53    
Precipitation  
Precipitation 0.00 in - - ()
Sea Level Pressure  
Sea Level Pressure 29.99 in    
Wind  
Wind Speed 8 mph ()    
Max Wind Speed 17 mph    
Max Gust Speed -    
Visibility 7.2 miles    
Events      
Averages and records for this station are not official NWS values.
T = Trace of Precipitation, MM = Missing Value Source: Averaged Metar Reports

Daily Weather History Graph

Daily Weather History Graph

Search for Another Location

Airport or City:

Trip Planner

Search our weather history database for the weather conditions in past years. The results will help you decide how hot, cold, wet, or windy it might be!

Date:

Astronomy

Jan. 02, 2014 Rise Set
Actual Time 8:09 AM CET 5:36 PM CET
Civil Twilight 7:39 AM CET 6:06 PM CET
Nautical Twilight 7:05 AM CET 6:40 PM CET
Astronomical Twilight 6:33 AM CET 7:13 PM CET
Moon 8:39 AM CET (1/2) 7:14 PM CET (1/2)
Length of Visible Light 10h 27m
Length of Day
9h 26m
New Moon, 2% of the Moon is Illuminated
Jan 2
New Moon
Jan 8
First Quarter
Jan 16
Full
Jan 24
Last Quarter
Jan 30
New

Hourly Weather History & Observations

Time (CET) Temp. Dew Point Humidity Pressure Visibility Wind Dir Wind Speed Gust Speed Precip Events Conditions
12:00 AM 57 °F 54 °F 86% 30.04 in - WSW 6.9 mph - -  
12:00 AM 57.2 °F 53.6 °F 88% 30.04 in 6.2 mi WSW 10.4 mph - N/A   Scattered Clouds
12:30 AM 55.4 °F 53.6 °F 94% 30.04 in 6.2 mi WSW 8.1 mph - N/A   Mostly Cloudy
1:00 AM 56 °F 54 °F 89% 30.02 in 9 mi WSW 3.5 mph - -   Overcast
1:00 AM 55.4 °F 53.6 °F 94% 30.01 in 6.2 mi WSW 6.9 mph - N/A   Scattered Clouds
1:30 AM 55.4 °F 53.6 °F 94% 30.01 in 6.2 mi WSW 5.8 mph - N/A   Partly Cloudy
2:00 AM 55 °F 54 °F 93% 30.01 in - SW 3.5 mph - -  
2:00 AM 55.4 °F 53.6 °F 94% 30.01 in 6.2 mi SW 4.6 mph - N/A   Partly Cloudy
3:00 AM 56 °F 53 °F 86% 30.01 in - SW 3.5 mph - -  
3:00 AM 55.4 °F 53.6 °F 94% 30.01 in 6.2 mi SW 5.8 mph - N/A   Partly Cloudy
3:30 AM 57.2 °F 53.6 °F 88% 29.98 in 6.2 mi SSW 6.9 mph - N/A   Partly Cloudy
4:00 AM 57 °F 54 °F 88% 29.99 in 9 mi SSW 9.2 mph - -   Overcast
4:00 AM 57.2 °F 55.4 °F 94% 29.98 in 6.2 mi SW 8.1 mph - N/A   Partly Cloudy
4:30 AM 57.2 °F 53.6 °F 88% 29.98 in 6.2 mi SW 10.4 mph - N/A   Partly Cloudy
5:00 AM 57 °F 54 °F 87% 29.98 in - WSW 13.8 mph - -  
5:00 AM 57.2 °F 53.6 °F 88% 29.98 in 6.2 mi WSW 12.7 mph - N/A   Partly Cloudy
5:30 AM 57.2 °F 55.4 °F 94% 29.95 in 6.2 mi WSW 12.7 mph - N/A   Partly Cloudy
6:00 AM 57 °F 54 °F 88% 29.97 in - WSW 12.7 mph - -  
6:00 AM 57.2 °F 55.4 °F 94% 29.95 in 6.2 mi WSW 13.8 mph - N/A   Partly Cloudy
6:30 AM 57.2 °F 53.6 °F 88% 29.95 in 6.2 mi WSW 13.8 mph - N/A   Partly Cloudy
7:00 AM 57 °F 55 °F 90% 29.97 in 9 mi WSW 12.7 mph - -   Partly Cloudy
7:00 AM 57.2 °F 55.4 °F 94% 29.95 in 6.2 mi WSW 12.7 mph - N/A   Scattered Clouds
7:30 AM 57.2 °F 55.4 °F 94% 29.95 in 6.2 mi WSW 9.2 mph - N/A   Scattered Clouds
8:00 AM 57 °F 55 °F 89% 29.97 in - West 9.2 mph - -  
8:00 AM 57.2 °F 55.4 °F 94% 29.95 in 6.2 mi WSW 4.6 mph - N/A   Partly Cloudy
8:30 AM 57.2 °F 55.4 °F 94% 29.98 in 6.2 mi WSW 4.6 mph - N/A   Partly Cloudy
9:00 AM 58 °F 56 °F 90% 29.99 in - WSW 10.4 mph - -  
9:00 AM 57.2 °F 55.4 °F 94% 29.98 in 6.2 mi WSW 8.1 mph - N/A   Partly Cloudy
9:30 AM 59.0 °F 57.2 °F 94% 29.98 in 6.2 mi WSW 8.1 mph - N/A   Partly Cloudy
10:00 AM 59 °F 56 °F 86% 30.00 in 12 mi SW 8.1 mph - -   Scattered Clouds
10:00 AM 59.0 °F 55.4 °F 88% 29.98 in 6.2 mi SSW 4.6 mph - N/A   Partly Cloudy
10:30 AM 59.0 °F 55.4 °F 88% 29.98 in 6.2 mi SSW 5.8 mph - N/A   Partly Cloudy
11:00 AM 60 °F 54 °F 76% 30.00 in - SSW 5.8 mph - -  
11:00 AM 59.0 °F 55.4 °F 88% 29.98 in 6.2 mi SW 6.9 mph - N/A   Partly Cloudy
11:30 AM 60.8 °F 55.4 °F 82% 30.01 in 6.2 mi SW 6.9 mph - N/A   Partly Cloudy
12:00 PM 62 °F 53 °F 65% 30.01 in - WSW 12.7 mph - -  
12:00 PM 60.8 °F 53.6 °F 77% 30.01 in 6.2 mi WSW 13.8 mph - N/A   Partly Cloudy
12:30 PM 62.6 °F 53.6 °F 72% 29.98 in 6.2 mi WSW 13.8 mph - N/A   Partly Cloudy
1:00 PM 64 °F 51 °F 53% 29.99 in 19 mi WSW 15.0 mph - -   Scattered Clouds
1:00 PM 62.6 °F 51.8 °F 68% 29.98 in 6.2 mi WSW 15.0 mph - N/A   Partly Cloudy
1:30 PM 62.6 °F 51.8 °F 68% 29.98 in 6.2 mi WSW 10.4 mph - N/A   Partly Cloudy
2:00 PM 63 °F 50 °F 54% 29.97 in - West 15.0 mph - -  
2:00 PM 62.6 °F 50.0 °F 63% 29.95 in 6.2 mi WSW 12.7 mph - N/A   Partly Cloudy
2:30 PM 62.6 °F 51.8 °F 68% 29.95 in 6.2 mi WSW 13.8 mph - N/A   Partly Cloudy
3:00 PM 62 °F 51 °F 57% 29.96 in - West 15.0 mph - -  
3:00 PM 60.8 °F 51.8 °F 72% 29.95 in 6.2 mi West 12.7 mph - N/A   Partly Cloudy
3:30 PM 60.8 °F 51.8 °F 72% 29.98 in 6.2 mi West 17.3 mph - N/A   Partly Cloudy
4:00 PM 61 °F 51 °F 61% 29.99 in 19 mi SW 13.8 mph - -   Overcast
4:00 PM 60.8 °F 51.8 °F 72% 29.98 in 6.2 mi West 12.7 mph - N/A   Partly Cloudy
4:30 PM 60.8 °F 50.0 °F 68% 29.98 in 6.2 mi WSW 13.8 mph - N/A   Partly Cloudy
5:00 PM 61 °F 51 °F 60% 29.99 in - SW 12.7 mph - -  
5:00 PM 60.8 °F 50.0 °F 68% 29.98 in 6.2 mi WSW 13.8 mph - N/A   Partly Cloudy
5:30 PM 60.8 °F 51.8 °F 72% 29.98 in 6.2 mi WSW 13.8 mph - N/A   Partly Cloudy
6:00 PM 60 °F 50 °F 61% 30.00 in - SW 13.8 mph - -  
6:00 PM 60.8 °F 51.8 °F 72% 29.98 in 6.2 mi WSW 10.4 mph - N/A   Partly Cloudy
6:30 PM 59.0 °F 50.0 °F 72% 29.98 in 6.2 mi WSW 11.5 mph - N/A   Partly Cloudy
7:00 PM 58 °F 50 °F 68% 30.00 in 14 mi WSW 8.1 mph - -   Scattered Clouds
7:00 PM 59.0 °F 50.0 °F 72% 29.98 in 6.2 mi WSW 6.9 mph - N/A   Partly Cloudy
7:30 PM 57.2 °F 51.8 °F 82% 29.98 in 6.2 mi Calm Calm - N/A   Partly Cloudy
8:00 PM 57 °F 54 °F 86% 30.01 in - SW 8.1 mph - -  
8:00 PM 59.0 °F 55.4 °F 88% 30.01 in 6.2 mi SSW 1.2 mph - N/A   Partly Cloudy
8:30 PM 57.2 °F 55.4 °F 94% 30.01 in 6.2 mi Variable 2.3 mph - N/A   Partly Cloudy
9:00 PM 54 °F 51 °F 86% 30.01 in - SSW 1.2 mph - -  
9:00 PM 57.2 °F 53.6 °F 88% 30.01 in 6.2 mi SSE 1.2 mph - N/A   Partly Cloudy
9:30 PM 53.6 °F 51.8 °F 94% 30.01 in 6.2 mi SE 1.2 mph - N/A   Partly Cloudy
10:00 PM 55 °F 54 °F 96% 30.01 in 12 mi ESE 1.2 mph - -   Scattered Clouds
10:00 PM 55.4 °F 55.4 °F 100% 30.01 in 6.2 mi SE 2.3 mph - N/A   Partly Cloudy
10:30 PM 55.4 °F 53.6 °F 94% 30.01 in 6.2 mi SSE 3.5 mph - N/A   Partly Cloudy
11:00 PM 55 °F 53 °F 92% 30.01 in - SSE 1.2 mph - -  
11:00 PM 55.4 °F 53.6 °F 94% 30.01 in 6.2 mi SSE 4.6 mph - N/A   Partly Cloudy
11:30 PM 55.4 °F 53.6 °F 94% 30.01 in 6.2 mi SSE 3.5 mph - N/A   Partly Cloudy